Location: *
(37.9500°N, 27.3666°E)
Time: 13:30:40
(UTC+00:00)

Cosmos 2322 - Pass Details

Date: 24 October 2021
Orbit: 841 x 854 km, 71.0° (Epoch: 02 December)

Event Time Altitude Azimuth Distance (km) Brightness Sun altitude
Rises 16:58:36 0° 184° (S) 3,403 6.9 -19.9°
Reaches altitude 10° 17:01:07 10° 179° (S) 2,472 6.1 -20.4°
Maximum altitude 17:06:32 48° 106° (ESE) 1,109 3.9 -21.5°
Enters shadow 17:07:21 44° 81° (E) 1,158 3.9 -21.6°
